[[{"header":{"parameterUnit":"m.s-1","parameterCategory":1,"la1":30.2991,"la2":30.254,"lo1":-89.0895,"lo2":-89.0444,"dy":0.0017,"dx":0.0017,"nx":28,"ny":28,"refTime":"2025-09-11T09:00:00:Z","depth":0,"parameterNumber":2,"parameterNumberName":"U-component_of_WINDS"},"data":[0,0,0,0,0,0,0,0,0,0,0,0,0,0,0,0,0,0,0,0,0,0,0,0,0,0,0,0,0,0,0,0,0,0,0,0,0,0,0,0,0,0,0,0,0,0,0,0,0,0,0,0,0,0,0,0,0,0,1.516,1.5161,0,1.5242,1.5243,1.5244,1.5264,1.5263,1.5263,1.5262,1.5344,1.5346,1.5349,0,0,0,0,0,0,0,0,0,0,0,0,0,1.5019,1.5022,1.516,1.5161,1.5162,1.5242,1.5243,1.5244,1.5264,1.5263,1.5263,1.5262,1.5343,1.5346,1.5349,0,0,0,0,0,0,0,0,0,0,0,0,0,1.5089,1.5023,1.516,1.5182,1.5185,1.5242,1.5243,1.5244,1.5264,1.5263,1.5263,1.5262,1.5342,1.5346,1.535,1.539,0,0,1.5362,1.5364,0,0,0,0,0,0,0,0,1.5085,1.5094,1.5178,1.5181,1.5184,1.5242,1.5223,1.5293,1.5264,1.5234,1.5262,1.5261,1.531,1.5317,1.5334,1.5394,1.5397,1.5362,1.5365,1.5366,1.5367,0,0,0,0,0,0,0,1.508,1.509,1.5193,1.5179,1.5183,1.5187,1.5196,1.5236,1.5276,1.5237,1.5238,1.5248,1.5312,1.533,1.5336,1.5398,1.5362,1.5366,1.5368,1.537,1.5494,1.5495,0,0,0,0,0,0,1.5072,1.5086,1.519,1.5195,1.5131,1.519,1.52,1.5224,1.5275,1.5282,1.5248,1.5248,1.5324,1.5331,1.5339,1.5388,1.5366,1.537,1.5372,1.5493,1.5494,1.5495,0,0,0,0,0,0,1.5068,1.5081,1.5187,1.5141,1.5155,1.5193,1.522,1.5226,1.5244,1.5284,1.5291,1.526,1.5323,1.5333,1.5377,1.5391,1.5372,1.5375,1.5492,1.5494,1.5495,1.5488,0,0,0,0,0,0,1.5064,1.5079,1.5096,1.5141,1.5157,1.5224,1.5221,1.5228,1.5251,1.5252,1.5297,1.5303,1.5323,1.5371,1.5381,1.5397,1.5379,1.5491,1.5493,1.5494,1.5487,1.5489,1.549,0,0,0,0,0,1.5059,1.509,1.5096,1.5109,1.5179,1.5225,1.5234,1.5257,1.5252,1.5269,1.5294,1.5302,1.5389,1.5375,1.5387,1.5404,1.549,1.5492,1.5494,1.5486,1.5488,1.549,0,0,0,0,0,0,1.5045,1.5097,1.5104,1.5151,1.5183,1.5228,1.5249,1.5259,1.5293,1.5292,1.5319,1.5329,1.537,1.5392,1.5376,1.5445,1.5439,1.5444,1.5429,1.5432,1.5433,1.5427,1.5382,0,0,0,0,0,1.5047,1.5081,1.5124,1.5162,1.5178,1.5211,1.5232,1.5247,1.5281,1.5295,1.5324,1.5356,1.539,1.5412,1.5446,1.5491,1.55,1.5508,1.551,1.5511,1.5514,1.5537,1.5541,1.5502,1.5502,1.5502,0,0,1.5052,1.5085,1.5104,1.516,1.5186,1.522,1.5222,1.5258,1.5282,1.53,1.5343,1.5365,1.5403,1.5447,1.5467,1.5465,1.5527,1.5513,1.5514,1.5517,1.554,1.5544,1.5547,1.5503,1.5503,1.5503,0,0,1.5078,1.5107,1.514,1.5167,1.5208,1.523,1.5238,1.5281,1.5297,1.534,1.5354,1.5384,1.5443,1.5469,1.549,1.5525,1.5533,1.5536,1.5544,1.5567,1.557,1.5573,1.5584,1.5588,1.5539,1.5539,1.5539,0,1.5079,1.5131,1.5156,1.5191,1.5214,1.5233,1.5266,1.5291,1.534,1.5355,1.5353,1.5427,1.5454,1.5503,1.5512,1.5529,1.5538,1.553,1.5568,1.5571,1.5574,1.5585,1.5589,1.5539,1.5539,1.5539,1.5539,0,1.5129,1.5164,1.5187,1.5234,1.526,1.5294,1.5324,1.5347,1.536,1.5381,1.5425,1.5458,1.5498,1.5512,1.5525,1.5563,1.556,1.5562,1.5557,1.5577,1.5588,1.5592,1.5539,1.5539,1.5539,1.5539,0,0,1.5147,1.5209,1.5216,1.5237,1.5284,1.5311,1.5346,1.5386,1.5405,1.5438,1.5467,1.5516,1.5519,1.5543,1.5559,1.5579,1.5603,1.5579,1.558,1.5581,1.5645,1.5642,1.5647,1.5609,1.561,1.5611,1.5642,0,1.5177,1.524,1.5264,1.5315,1.5347,1.5365,1.5395,1.5426,1.5447,1.5477,1.55,1.5534,1.5536,1.555,1.5571,1.5596,1.5616,1.5594,1.5635,1.5636,1.5623,1.5653,1.565,1.5678,1.5646,1.5647,1.5648,0,1.5221,1.5255,1.531,1.5351,1.5366,1.5392,1.543,1.546,1.5495,1.5509,1.5535,1.555,1.5586,1.5579,1.5628,1.5612,1.563,1.5645,1.5647,1.565,1.5642,1.5656,1.5687,1.5691,1.5655,1.5654,1.5654,0,1.5227,1.5287,1.5327,1.5345,1.5395,1.5413,1.5434,1.5469,1.5491,1.5525,1.5539,1.5576,1.5596,1.5624,1.5648,1.5641,1.5694,1.569,1.5705,1.5705,1.5714,1.5713,1.5748,1.5728,1.5728,1.5728,1.5728,0,1.5258,1.529,1.533,1.5354,1.539,1.5417,1.5452,1.5475,1.5505,1.5534,1.5551,1.5577,1.5608,1.5638,1.5657,1.5694,1.5703,1.5714,1.5718,1.5712,1.571,1.5723,1.5721,1.5729,1.5729,1.5729,1.5729,0,1.527,1.5298,1.5343,1.5387,1.5398,1.5423,1.546,1.5484,1.5506,1.5541,1.5551,1.5586,1.5622,1.5649,1.5695,1.5708,1.5746,1.5752,1.5734,1.5736,1.575,1.5748,1.5793,1.58,1.5777,1.5777,1.5777,0,1.5287,1.5312,1.5358,1.5379,1.54,1.5433,1.5456,1.5484,1.5507,1.5549,1.5567,1.5604,1.5636,1.5692,1.5721,1.5756,1.5761,1.5775,1.5767,1.5759,1.576,1.5758,1.576,1.5775,1.5775,1.5776,1.5776,0,1.5313,1.5326,1.5359,1.5397,1.5424,1.5454,1.5485,1.5501,1.5534,1.5559,1.5596,1.562,1.5668,1.5704,1.5742,1.5764,1.5775,1.5778,1.5783,1.5776,1.5765,1.577,1.5736,1.5777,1.5777,1.5776,1.5776,1.5776,1.5327,1.535,1.5386,1.5422,1.5448,1.5477,1.5501,1.5527,1.5558,1.5599,1.5614,1.5652,1.5686,1.5738,1.576,1.579,1.579,1.5798,1.5799,1.5801,1.5799,1.5761,1.5797,1.5797,1.5797,1.5797,1.5797,0,1.5353,1.5378,1.541,1.5453,1.5481,1.5491,1.5525,1.5548,1.5581,1.5612,1.5643,1.5685,1.572,1.5752,1.5788,1.5806,1.5812,1.5815,1.5813,1.5817,1.5798,1.5789,1.5809,1.5809,1.5809,1.5809,1.5809,1.5809,1.537,1.5409,1.5426,1.5477,1.5501,1.5539,1.5558,1.5584,1.5609,1.5656,1.5685,1.5706,1.5737,1.5776,1.5809,1.5817,1.5829,1.583,1.5839,1.582,1.5819,1.5817,1.5809,1.5833,1.5833,1.5856,1.5857,1.5857]},{"header":{"parameterUnit":"m.s-1","parameterCategory":1,"la1":30.2991,"la2":30.254,"lo1":-89.0895,"lo2":-89.0444,"dy":0.0017,"dx":0.0017,"nx":28,"ny":28,"refTime":"2025-09-11T09:00:00:Z","depth":0,"parameterNumber":3,"parameterNumberName":"V-component_of_WINDS"},"data":[0,0,0,0,0,0,0,0,0,0,0,0,0,0,0,0,0,0,0,0,0,0,0,0,0,0,0,0,0,0,0,0,0,0,0,0,0,0,0,0,0,0,0,0,0,0,0,0,0,0,0,0,0,0,0,0,0,0,0.8474,0.8472,0,0.8342,0.834,0.8339,0.8251,0.825,0.825,0.8249,0.8111,0.8108,0.8105,0,0,0,0,0,0,0,0,0,0,0,0,0,0.8646,0.8643,0.8474,0.8472,0.847,0.8342,0.834,0.8338,0.8251,0.825,0.825,0.8249,0.8112,0.8109,0.8105,0,0,0,0,0,0,0,0,0,0,0,0,0,0.8549,0.8643,0.8474,0.8411,0.8404,0.8342,0.834,0.8338,0.8251,0.825,0.8249,0.8249,0.8114,0.8109,0.8104,0.8093,0,0,0.809,0.8088,0,0,0,0,0,0,0,0,0.8554,0.8542,0.8422,0.8416,0.8408,0.8312,0.835,0.8256,0.8251,0.8309,0.8249,0.8248,0.8179,0.8169,0.8146,0.8087,0.8081,0.809,0.8087,0.8085,0.8084,0,0,0,0,0,0,0,0.8561,0.8547,0.8421,0.8421,0.8412,0.8389,0.8374,0.8332,0.825,0.8304,0.8298,0.8283,0.8174,0.815,0.8142,0.8079,0.809,0.8086,0.8083,0.8081,0.8002,0.8003,0,0,0,0,0,0,0.8578,0.8554,0.8426,0.8417,0.848,0.8386,0.837,0.8344,0.8251,0.8236,0.8284,0.828,0.8159,0.8147,0.8137,0.8116,0.8085,0.8081,0.8078,0.8002,0.8003,0.8003,0,0,0,0,0,0,0.8582,0.8568,0.8431,0.8484,0.8465,0.8384,0.8356,0.8341,0.8317,0.8236,0.822,0.8275,0.8158,0.8143,0.8105,0.811,0.8078,0.8074,0.8001,0.8002,0.8003,0.8077,0,0,0,0,0,0,0.8588,0.857,0.8565,0.8484,0.8462,0.8402,0.8356,0.834,0.831,0.8303,0.8223,0.8209,0.8156,0.8112,0.81,0.8103,0.807,0.8,0.8001,0.8003,0.8073,0.808,0.8086,0,0,0,0,0,0.8594,0.8591,0.8566,0.8551,0.8455,0.8403,0.839,0.833,0.8311,0.8305,0.8252,0.8211,0.8112,0.8109,0.8094,0.8097,0.7999,0.8001,0.8003,0.807,0.8079,0.8086,0,0,0,0,0,0,0.8674,0.8579,0.855,0.8521,0.8471,0.8388,0.8379,0.8341,0.8295,0.829,0.8217,0.8199,0.8168,0.8128,0.8126,0.808,0.8051,0.8049,0.8107,0.8114,0.812,0.813,0.8067,0,0,0,0,0,0.8688,0.8655,0.8573,0.8555,0.8532,0.846,0.8435,0.8394,0.8338,0.8316,0.8261,0.8208,0.8164,0.8137,0.8093,0.8067,0.8048,0.8061,0.8068,0.8073,0.8073,0.8055,0.806,0.8009,0.8009,0.8009,0,0,0.8717,0.8662,0.8645,0.857,0.8526,0.8492,0.8443,0.8409,0.8382,0.8311,0.8271,0.8228,0.8164,0.8132,0.8115,0.8098,0.8083,0.8075,0.8081,0.8077,0.8057,0.8062,0.8067,0.801,0.801,0.8009,0,0,0.8753,0.8708,0.8687,0.8644,0.8579,0.8531,0.8527,0.845,0.8419,0.8378,0.8323,0.829,0.8217,0.8173,0.8142,0.816,0.8119,0.8147,0.818,0.8163,0.8167,0.8171,0.8176,0.8179,0.8147,0.8148,0.8148,0,0.8797,0.8744,0.8681,0.865,0.8618,0.8553,0.8531,0.8492,0.8416,0.8394,0.8377,0.8284,0.8236,0.8192,0.8196,0.8173,0.8164,0.8156,0.8172,0.8175,0.8177,0.8181,0.8183,0.8151,0.8151,0.815,0.815,0,0.88,0.8765,0.8756,0.8684,0.8651,0.8625,0.8558,0.8532,0.8493,0.8447,0.8405,0.8346,0.8288,0.8274,0.8236,0.8224,0.8216,0.8186,0.8155,0.8186,0.8189,0.819,0.8157,0.8155,0.8154,0.8153,0,0,0.8882,0.8776,0.8774,0.874,0.8663,0.8633,0.8604,0.8548,0.8526,0.8475,0.8448,0.8387,0.8359,0.8324,0.8279,0.8265,0.8282,0.8237,0.8234,0.8246,0.8264,0.8286,0.8289,0.8255,0.8255,0.8255,0.8269,0,0.8905,0.8849,0.8792,0.8755,0.8721,0.8658,0.8632,0.8581,0.8537,0.85,0.8451,0.8409,0.8376,0.8354,0.8337,0.8284,0.8284,0.8282,0.8227,0.8226,0.8244,0.8291,0.8314,0.833,0.827,0.827,0.827,0,0.8924,0.8876,0.8837,0.8763,0.8746,0.8724,0.8667,0.8633,0.8574,0.8543,0.8503,0.8456,0.842,0.8394,0.8342,0.8342,0.8316,0.8286,0.8286,0.8277,0.825,0.8283,0.8334,0.8336,0.8271,0.8271,0.8271,0,0.8986,0.8912,0.8879,0.8852,0.8765,0.875,0.8713,0.8653,0.8622,0.8573,0.8552,0.8499,0.847,0.8429,0.8368,0.8355,0.8323,0.8292,0.8295,0.8296,0.829,0.8291,0.8337,0.8276,0.8276,0.8276,0.8275,0,0.9017,0.8995,0.8906,0.8885,0.8858,0.8792,0.8767,0.8724,0.8671,0.864,0.8582,0.8554,0.8477,0.8439,0.8391,0.8355,0.8342,0.8315,0.8303,0.832,0.8323,0.8301,0.8298,0.8276,0.8276,0.8276,0.8276,0,0.9081,0.9021,0.898,0.8901,0.888,0.8864,0.8795,0.8772,0.8725,0.8686,0.8673,0.8599,0.8551,0.8488,0.842,0.8388,0.8357,0.8338,0.8378,0.837,0.8377,0.8377,0.8409,0.8409,0.8349,0.835,0.8351,0,0.9104,0.9086,0.9005,0.8981,0.8945,0.8907,0.8876,0.881,0.8779,0.871,0.8695,0.8643,0.8598,0.8525,0.8464,0.8412,0.839,0.8405,0.8382,0.84,0.8389,0.8391,0.8388,0.8411,0.8412,0.8413,0.8413,0,0.9152,0.9123,0.9081,0.9028,0.8993,0.8948,0.8901,0.8884,0.8807,0.8776,0.8728,0.8693,0.8624,0.8573,0.8512,0.8472,0.843,0.8421,0.8419,0.8436,0.8459,0.8446,0.8393,0.8421,0.842,0.8419,0.8419,0.8419,0.9195,0.9176,0.9116,0.907,0.9028,0.8985,0.8959,0.8909,0.8868,0.8807,0.877,0.8723,0.8662,0.8577,0.8539,0.85,0.8483,0.848,0.8479,0.8479,0.8484,0.8467,0.8488,0.8488,0.8488,0.8488,0.8487,0,0.9238,0.9197,0.9156,0.9092,0.9056,0.902,0.8966,0.8938,0.8897,0.8845,0.8802,0.8746,0.8696,0.8631,0.8576,0.8557,0.8536,0.8545,0.8545,0.8536,0.8503,0.851,0.8563,0.8563,0.8563,0.8563,0.8563,0.8563,0.9257,0.9222,0.9186,0.9128,0.9086,0.904,0.9012,0.8971,0.8929,0.8869,0.8828,0.8786,0.8728,0.8669,0.8621,0.8603,0.8585,0.8599,0.8576,0.8545,0.8539,0.8532,0.8538,0.8596,0.8596,0.8612,0.8612,0.8612]}]]